Regional Weather Roundup
Issued by NWS Upton, NY

Current Version | Previous Version | Text Only | Print | Product List | Glossary On
Versions: 1 2 3 4 5 6 7 8 9 10 11 12 13 14 15 16 17 18 19 20 21 22 23 24 25 26 27
000 ASUS41 KOKX 110408 RWROKX REGIONAL WEATHER ROUNDUP NATIONAL WEATHER SERVICE NEW YORK NY 1100 PM EST SUN DEC 10 2017 NOTE: "FAIR" INDICATES FEW OR NO CLOUDS BELOW 12,000 FEET WITH NO SIGNIFICANT WEATHER AND/OR OBSTRUCTIONS TO VISIBILITY. NYZ071-072-176-178-NJZ106-104-110500- NEW YORK CITY METRO AREA CITY SKY/WX TMP DP RH WIND PRES REMARKS Central Park CLOUDY 36 21 54 VRB6G16 30.03S WCI 31 Bronx Bot Gard N/A 36 21 55 W15 30.01F WCI 26 Bronx Lehman C N/A 36 23 60 SW6 N/A WCI 31 LaGuardia APRT CLOUDY 37 20 50 SW10 30.01S WCI 30 Queens College N/A 36 23 60 W8 N/A WCI 29 Kennedy INTL CLOUDY 36 25 64 W16 30.04R WCI 26 Breezy Point N/A 36 N/A N/A SW10G20 N/A WCI 28 Brooklyn Coll N/A 36 25 64 SW8 N/A WCI 29 Staten Island N/A 34 25 69 SW6 N/A WCI 29 Newark/Liberty CLOUDY 35 22 58 SW9 30.02S WCI 28 Teterboro CLOUDY 35 23 61 SW9 30.01S WCI 28 $$ NYZ177-179-078>081-110500- LONG ISLAND NEW YORK CITY SKY/WX TMP DP RH WIND PRES REMARKS Jones Beach N/A 37 N/A N/A W16G25 N/A WCI 28 Wantagh N/A 36 25 64 W9 N/A WCI 29 Matinecock PT N/A 37 N/A N/A SW24 N/A WCI 26 Farmingdale CLOUDY 35 23 61 W8 30.02S WCI 29 MacArthur/ISP CLOUDY 35 24 64 SW9 30.01S WCI 28 Shirley CLOUDY 36 23 59 SW8 30.02S WCI 30 Mt Sinai Harb N/A N/A N/A N/A SW5G10 N/A Westhampton CLOUDY 35 22 58 W9 30.02S WCI 28 East Hampton FAIR 35 21 56 W6 30.00F WCI 30 Southold N/A 36 25 64 SW9 N/A WCI 29 Montauk N/A 39 23 52 SW13G21 30.01S WCI 31 $$ NYZ052-065-067-110500- HUDSON VALLEY CITY SKY/WX TMP DP RH WIND PRES REMARKS White Plains CLOUDY 33 20 58 VRB7 29.98S WCI 27 Larchmont Harb N/A 36 N/A N/A SW16 N/A WCI 26 Croton On Huds N/A 36 N/A N/A SW9 N/A WCI 29 Somers N/A 32 21 64 SW5 N/A WCI 27 Brewster N/A 32 21 64 S1 N/A Newburgh CLOUDY 32 23 69 W12 29.96S WCI 23 Montgomery CLOUDY 32 21 64 SW10 29.95S WCI 24 Otisville N/A 32 21 64 SW3 N/A Warwick N/A 32 19 59 W12 N/A WCI 23 Suffern N/A 32 19 59 SW3 N/A Poughkeepsie CLOUDY 34 20 56 SW9 29.96S WCI 27 Albany CLOUDY 31 21 66 S8 29.91R WCI 23 $$ NJZ001-105-106-008-010-013-015-019>022-104-110500- NEW JERSEY CITY SKY/WX TMP DP RH WIND PRES REMARKS Newark/Liberty CLOUDY 35 22 58 SW9 30.02S WCI 28 Teterboro CLOUDY 35 23 61 SW9 30.01S WCI 28 Caldwell CLOUDY 33 21 61 VRB5 30.01S WCI 29 Somerville CLOUDY 32 23 69 CALM 30.01R Linden FAIR 35 21 57 CALM 30.03S Perth Amboy N/A 34 N/A N/A S7 N/A WCI 28 Sussex CLOUDY 32 20 61 SW5 29.97S WCI 27 Andover NOT AVBL Trenton CLOUDY 35 21 56 SW6 30.03R WCI 30 Millville CLOUDY 35 30 82 SW5 30.07S WCI 31 Atlantic City CLOUDY 35 28 75 SW7 30.06F WCI 29 Wrightstown CLOUDY 32 24 73 S7 30.02S WCI 26 Toms River CLOUDY 31 26 82 SW7 30.06S WCI 24 Belmar CLOUDY 33 23 66 SW7 30.05S WCI 27 $$ PAZ047>061-062-071-110500- EASTERN PENNSYLVANIA CITY SKY/WX TMP DP RH WIND PRES REMARKS Philadelphia CLOUDY 36 25 64 S9 30.05S WCI 29 Allentown CLOUDY 33 21 61 W5 30.00S WCI 29 Scranton CLOUDY 31 19 61 SW12 29.94S WCI 22 $$ CTZ002-004>006-009-010-012-RIZ004-006-007-MAZ004-011-015-110500- SOUTHERN NEW ENGLAND IN CT CITY SKY/WX TMP DP RH WIND PRES REMARKS Bradley INTL MOCLDY 33 22 63 SW14 29.95S WCI 23 Hartford CLOUDY 35 23 61 SW5 29.97S WCI 31 Danbury CLOUDY 33 21 61 SW8 29.97F WCI 26 Wtrbury/Oxford CLOUDY 30 22 72 VRB5 29.96S WCI 25 Norwalk Harbor N/A 36 N/A N/A SW17 N/A WCI 25 Bridgeport CLOUDY 37 22 54 SW13G21 29.99F WCI 29 Meriden CLOUDY 33 21 61 S5 29.98S WCI 29 New Haven CLOUDY 38 22 52 W10G18 29.99S WCI 31 Chester MOCLDY 34 19 55 W8G14 29.96F WCI 27 Groton CLOUDY 37 22 54 W12 29.98S WCI 29 Wilimantic CLOUDY 34 23 64 SW5 29.97S WCI 30 IN RI CITY SKY/WX TMP DP RH WIND PRES REMARKS Providence CLOUDY 35 24 64 SW9 29.98R WCI 28 Block Island N/A N/A N/A N/A MISG N/A Westerly CLOUDY 38 22 52 VRB7 29.99S WCI 33 IN MA CITY SKY/WX TMP DP RH WIND PRES REMARKS Boston CLOUDY 33 24 69 SW12 29.96R WCI 24 Worcester CLOUDY 28 20 71 SW12 29.90S WCI 18 Westfield CLOUDY 30 22 72 S6 29.93S WCI 24 Provincetown NOT AVBL Nantucket CLOUDY 39 25 57 NW3 30.00R $$ ANZ330-335-338-340-345-350-353-355-110500- COASTAL MARINE OBSERVATIONS STATION/POSITION TIME SKY/WX TEMP WIND PRES VSBY WAVE AIR SEA DIR/SP/G HT/PER (UTC) (F) (DEG/KT/KT) (MB) (MI) (FT/S) NY HARB ENTRANCE 0250 40 52 250/ 19/ 23 1016.1 4/10 20 S FIRE ISLAND 0250 40 53 260/ 19/ 23 1016.8 6/ 5 GREAT SOUTH BAY 0330 38 45 260/ 17/ 19 N/A HUDSON CANYON 0250 43 56 260/ 17/ 25 1017.0 7/10 KINGS POINT 0330 37 46 280/ 11/ 14 1017.1 EXECUTION ROCKS 0315 39 230/ 17/ 21 N/A WESTERN LI SOUND 0249 39 250/ 17/ 25 N/A 2/ 3 CENTRAL LI SOUND NOT AVBL ROBBINS REEF 0330 36 230/ 11/ 15 1017.2 $$ >>>>>>>>>>>>>>>>>>>>>>>>>>>> KEY <<<<<<<<<<<<<<<<<<<<<<<<<<< > < > SKY/WX - Sky Condition/Present Weather < > TMP - Temperature in Fahrenheit < > DP - Dew Point in Fahrenheit < > RH - Relative Humidity in Percent < > WIND - Direction (from) and Speed in MPH < > PRES - Mean Sea Level Pressure (inches of Hg) < > WCI - Wind Chill Index < > VSB - VISIBILITY IN MILES < > HX - HEAT INDEX < > TC - TEMPERATURE IN CELSIUS < > VRB - VARIABLE WIND DIRECTION < > < >>>>>>>>>>>>>>>>>>>>>>>>>>>> KEY <<<<<<<<<<<<<<<<<<<<<<<<<<<

USA.gov is the U.S. government's official web portal to all federal, state and local government web resources and services.